Lid_Strength_Index
9 10 10 9 9 9 9 9 10 8 8 7 5 5 4 3 4 4 4 3 2 3 2 2 2 2 2 1 1 1 1 1 1 1 1 1 1 1 0 0 0 0 0 0
11 10 11 11 10 9 9 8 8 8 8 5 4 4 4 3 3 3 3 3 3 2 2 2 2 2 1 2 1 1 1 2 1 1 1 1 1 1 1 1 1 0 1 1
12 10 11 12 10 9 9 8 8 9 7 5 5 5 4 4 3 3 3 3 3 2 2 2 2 1 2 1 1 1 1 1 1 1 1 1 1 1 1 1 1 1 1 1
12 11 15 9 6 7 9 8 7 7 6 6 5 4 4 3 3 3 3 2 3 3 2 1 1 1 1 1 1 2 2 2 1 1 1 1 1 1 1 1 1 1 1 1
13 13 11 9 9 9 9 9 7 7 6 6 5 5 5 3 2 2 2 2 2 1 2 1 1 1 1 1 1 2 2 2 2 1 1 1 2 2 1 1 1 1 1 1
12 14 15 10 7 7 7 10 6 6 6 6 5 7 6 3 3 2 2 1 1 1 1 1 1 1 1 2 2 2 2 2 1 1 1 2 1 1 1 1 1 1 1 1
14 14 12 8 7 6 11 11 6 5 6 6 7 6 4 3 3 2 2 2 1 1 1 1 1 1 1 2 2 2 1 1 1 1 1 1 1 1 1 1 1 1 2 1
13 14 16 8 8 10 6 5 5 5 5 5 5 4 4 3 3 3 3 2 2 2 2 1 1 1 2 2 1 1 1 1 1 1 1 1 1 1 1 1 2 2 2 2
10 12 8 8 8 6 6 6 5 5 4 4 4 4 4 4 4 3 3 2 2 2 1 1 1 1 2 2 1 1 1 1 1 1 1 1 2 2 2 2 2 2 2 3
9 8 8 8 7 6 6 6 5 4 4 3 4 4 4 4 4 3 3 3 2 2 2 2 2 2 1 1 1 1 2 2 1 2 2 1 1 1 2 2 2 2 3 3
9 8 7 7 7 6 6 6 6 5 5 3 3 4 4 4 4 3 3 3 2 3 3 3 2 2 1 1 1 2 2 2 2 2 2 2 1 2 2 1 3 2 2 2
10 6 6 6 6 6 6 5 5 4 4 3 3 4 3 4 3 3 4 3 3 3 3 3 3 3 2 1 1 1 2 2 2 2 2 2 2 3 15 16 17 17 14 7
6 5 6 5 5 5 6 6 5 5 4 4 3 3 4 5 4 5 4 4 3 3 3 2 2 2 2 1 1 2 2 2 2 3 2 2 2 3 4 8 15 17 17 17
5 5 6 5 6 5 5 5 5 3 3 3 4 4 4 5 4 4 4 3 3 3 3 2 2 2 1 1 2 2 2 6 2 2 2 2 2 2 2 3 3 3 11 13
8 6 6 4 5 6 5 5 4 4 5 5 4 5 4 5 5 4 3 2 2 2 3 3 3 2 1 1 2 2 2 2 2 2 2 2 2 2 2 2 2 2 2 7
6 7 7 6 6 5 5 5 5 6 5 5 5 5 4 5 3 3 2 2 3 4 3 3 3 2 1 1 2 2 2 4 3 2 2 2 2 3 2 2 2 3 2 2
7 7 6 6 5 5 5 5 5 6 5 5 5 5 5 4 4 4 4 3 2 2 2 2 2 1 1 1 1 2 2 1 3 1 2 2 1 2 2 2 2 3 2 2
6 5 4 5 5 6 6 5 5 5 5 5 4 5 5 5 5 4 3 2 2 3 2 1 1 1 1 1 1 1 1 1 1 2 1 2 2 2 2 2 2 2 2 4
5 5 5 5 5 5 6 7 7 7 7 6 6 6 5 5 5 4 3 4 3 3 2 1 2 1 1 1 1 1 1 1 2 2 2 3 2 2 2 2 2 2 3 3
7 7 7 6 5 5 7 7 7 7 7 7 6 6 6 5 5 5 5 5 4 4 3 3 1 1 1 1 1 1 1 1 1 1 1 2 2 2 2 4 2 3 3 2
7 7 8 8 9 8 6 6 7 7 8 7 7 7 9 8 6 6 7 8 6 4 4 5 4 2 2 1 1 1 1 1 1 2 2 2 2 2 2 1 2 2 2 1
7 7 7 8 8 8 7 6 6 6 7 7 7 8 8 8 8 8 6 7 5 6 4 4 4 4 3 2 1 1 1 1 3 3 3 2 2 2 2 2 2 1 1 1
6 7 8 7 8 9 8 8 7 6 6 6 5 6 7 7 7 8 8 6 5 6 5 5 6 5 5 3 3 4 4 4 4 4 6 6 6 6 5 4 2 2 2 2
5 6 5 6 7 7 8 8 7 7 7 6 6 5 5 6 6 6 6 7 7 7 6 6 6 6 5 4 3 3 3 4 4 5 6 9 7 6 6 6 5 4 3 4
4 5 5 6 6 6 6 5 6 6 6 6 6 6 6 6 7 7 6 7 8 6 6 7 7 6 5 4 4 4 4 4 4 3 3 4 7 8 6 6 5 5 5 4
5 5 5 5 5 5 4 5 6 5 6 6 6 6 6 6 6 6 6 6 6 6 6 6 6 5 5 5 5 4 4 4 4 4 4 4 4 4 5 6 5 4 4 4
5 6 4 5 5 5 5 5 5 6 5 5 5 5 5 5 5 5 6 5 5 5 5 5 6 6 6 5 5 5 5 5 7 4 4 4 4 5 6 7 7 7 5 5